Location: Colle Santa Colomba
(42.0333°N, 12.5667°E)
Time: 01:57:01
(UTC+00:00)

CZ-2C R/B - Pass Details

Date: 25 October 2021
Orbit: 388 x 573 km, 35.0° (Epoch: 28 November)

Event Time Altitude Azimuth Distance (km) Brightness Sun altitude
Rises 16:34:28 0° 260° (W) 2,588 7.8 -4.7°
Reaches altitude 10° 16:37:07 10° 244° (WSW) 1,662 5.4 -5.2°
Maximum altitude 16:40:00 21° 195° (SSW) 1,109 3.2 -5.7°
Drops below altitude 10° 16:42:45 10° 145° (SE) 1,573 3.4 -6.2°
Sets 16:45:11 0° 128° (SE) 2,403 4.2 -6.7°
Enters shadow 16:45:23 -1° 127° (SE) 2,478 4.3 -6.7°
